Location: Home
(42.5358°N, 72.7383°W)
Time: 09:06:11
(UTC-05:00)

Transit 2A Rocket - Pass Details

Date: 07 December 2021
Orbit: 584 x 917 km, 66.7° (Epoch: 23 January)

Event Time Altitude Azimuth Distance (km) Brightness Sun altitude
Rises 05:53:20 0° 188° (S) 3,277 8.4 -13.2°
Reaches altitude 10° 05:55:45 10° 182° (S) 2,401 7.8 -12.8°
Maximum altitude 06:01:01 44° 112° (ESE) 1,184 6.6 -11.9°
Drops below altitude 10° 06:06:39 10° 42° (NE) 2,579 8.0 -10.9°
Sets 06:09:20 0° 37° (NE) 3,545 8.6 -10.4°
